Weather History for 40416 - December, 2013

Change the Weather History Date:

Wednesday, December 4, 2013

  Actual Average Record
Temperature  
Mean Temperature 68 °F -  
Max Temperature 80 °F 71 °F - ()
Min Temperature 55 °F 53 °F - ()
Cooling Degree Days 2    
Growing Degree Days 18 (Base 50)    
Moisture  
Dew Point 50 °F    
Average Humidity 53    
Maximum Humidity 96    
Minimum Humidity 23    
Precipitation  
Precipitation 0.00 in 0.02 in - ()
Sea Level Pressure  
Sea Level Pressure 29.92 in    
Wind  
Wind Speed 5 mph ()    
Max Wind Speed 10 mph    
Max Gust Speed -    
Visibility 6.0 miles    
Events      
T = Trace of Precipitation, MM = Missing Value Source: Averaged Metar Reports

Daily Weather History Graph

Daily Weather History Graph

Search for Another Location

Airport or City:

Trip Planner

Search our weather history database for the weather conditions in past years. The results will help you decide how hot, cold, wet, or windy it might be!

Date:

Astronomy

Dec. 04, 2013 Rise Set
Actual Time 6:12 AM AST 4:47 PM AST
Civil Twilight 5:46 AM AST 5:12 PM AST
Nautical Twilight 5:18 AM AST 5:40 PM AST
Astronomical Twilight 4:50 AM AST 6:08 PM AST
Moon 7:20 AM AST (12/4) 6:27 PM AST (12/4)
Length of Visible Light 11h 25m
Length of Day
10h 35m
Waxing Crescent, 3% of the Moon is Illuminated
Dec 4
Waxing Crescent
Dec 9
First Quarter
Dec 17
Full
Dec 25
Last Quarter
Jan 1
New

Hourly Weather History & Observations

Time (AST) Temp. Dew Point Humidity Pressure Visibility Wind Dir Wind Speed Gust Speed Precip Events Conditions
12:00 AM 59 °F 52 °F 70% 29.93 in 6 mi Calm Calm - -  
12:00 AM 59.0 °F 51.8 °F 77% 29.92 in - Calm Calm - N/A   Clear
1:00 AM 60.8 °F 51.8 °F 72% 29.92 in - South 5.8 mph - N/A   Clear
2:00 AM 59.0 °F 55.4 °F 88% 29.89 in - Variable 2.3 mph - N/A   Clear
3:00 AM 58 °F 57 °F 96% 29.91 in 6 mi WSW 6.9 mph - -  
3:00 AM 59.0 °F 57.2 °F 94% 29.89 in - WSW 6.9 mph - N/A   Clear
4:00 AM 57.2 °F 48.2 °F 72% 29.89 in - West 4.6 mph - N/A   Clear
5:00 AM 57.2 °F 46.4 °F 67% 29.92 in - Variable 2.3 mph - N/A   Clear
6:00 AM 60 °F 41 °F 38% 29.94 in 6 mi 2.3 mph - -  
6:00 AM 60.8 °F 41.0 °F 48% 29.92 in - Variable 2.3 mph - N/A   Clear
7:00 AM 59.0 °F 42.8 °F 55% 29.95 in - Calm Calm - N/A   Clear
8:00 AM 64.4 °F 50.0 °F 59% 29.98 in - Variable 2.3 mph - N/A   Clear
9:00 AM 69 °F 45 °F 30% 29.99 in 6 mi South 6.9 mph - -  
9:00 AM 69.8 °F 44.6 °F 40% 29.98 in - South 6.9 mph - N/A   Clear
10:00 AM 75.2 °F 37.4 °F 25% 29.98 in - South 9.2 mph - N/A   Clear
11:00 AM 77.0 °F 41.0 °F 28% 29.95 in - South 10.4 mph - N/A   Clear
12:00 PM 77 °F 46 °F 23% 29.93 in 6 mi South 9.2 mph - -   Scattered Clouds
12:00 PM 77.0 °F 46.4 °F 34% 29.92 in - South 9.2 mph - N/A   Clear
1:00 PM 77.0 °F 44.6 °F 32% 29.89 in - South 9.2 mph - N/A   Clear
2:00 PM 78.8 °F 46.4 °F 32% 29.89 in - South 9.2 mph - N/A   Clear
3:00 PM 79 °F 48 °F 23% 29.88 in 6 mi ESE 9.2 mph - -   Scattered Clouds
3:00 PM 78.8 °F 48.2 °F 34% 29.86 in - ESE 9.2 mph - N/A   Clear
4:00 PM 77.0 °F 50.0 °F 39% 29.86 in - SSE 9.2 mph - N/A   Clear
5:00 PM 75.2 °F 50.0 °F 41% 29.89 in - SSE 9.2 mph - N/A   Clear
6:00 PM 72 °F 55 °F 46% 29.90 in 6 mi SE 8.1 mph - -  
6:00 PM 71.6 °F 55.4 °F 57% 29.89 in - SE 8.1 mph - N/A   Clear
7:00 PM 71.6 °F 57.2 °F 60% 29.92 in - East 9.2 mph - N/A   Clear
8:00 PM 69.8 °F 55.4 °F 60% 29.92 in - East 8.1 mph - N/A   Clear
9:00 PM 70 °F 55 °F 50% 29.94 in 6 mi East 8.1 mph - -  
9:00 PM 69.8 °F 55.4 °F 60% 29.92 in - East 8.1 mph - N/A   Clear
10:00 PM 68.0 °F 59.0 °F 73% 29.92 in - East 6.9 mph - N/A   Clear
11:00 PM 68.0 °F 59.0 °F 73% 29.92 in - East 9.2 mph - N/A   Clear